Weather History for Casa Grande, AZ

Change the Weather History Date:

Monday, April 8, 2013

  Actual Average Record
Temperature  
Mean Temperature 66 °F -  
Max Temperature 82 °F 75 °F 91 °F (2014)
Min Temperature 51 °F 46 °F 39 °F (1998)
Cooling Degree Days 2    
Growing Degree Days 16 (Base 50)    
Moisture  
Dew Point 37 °F    
Average Humidity 36    
Maximum Humidity 82    
Minimum Humidity 16    
Precipitation  
Precipitation 0.03 in - - ()
Sea Level Pressure  
Sea Level Pressure 29.56 in    
Wind  
Wind Speed 13 mph (SSW)    
Max Wind Speed 37 mph    
Max Gust Speed 46 mph    
Visibility 8 miles    
Events Thunderstorm    
Averages and records for this station are not official NWS values.
T = Trace of Precipitation, MM = Missing Value Source: NWS Daily Summary

Daily Weather History Graph

Daily Weather History Graph

Search for Another Location

Airport:

Trip Planner

Search our weather history database for the weather conditions in past years. The results will help you decide how hot, cold, wet, or windy it might be!

Date:

Astronomy

Apr. 08, 2013 Rise Set
Actual Time 6:05 AM MST 6:52 PM MST
Civil Twilight 5:40 AM MST 7:17 PM MST
Nautical Twilight 5:10 AM MST 7:47 PM MST
Astronomical Twilight 4:40 AM MST 8:17 PM MST
Moon 4:53 AM MST (4/8) 5:33 PM MST (4/8)
Length of Visible Light 13h 37m
Length of Day
12h 47m
Waning Crescent, 3% of the Moon is Illuminated
Apr 8
Waning Crescent
Apr 10
New
Apr 18
First Quarter
Apr 25
Full
May 2
Last Quarter

Hourly Weather History & Observations

Time (MST) Temp. Dew Point Humidity Pressure Visibility Wind Dir Wind Speed Gust Speed Precip Events Conditions
12:15 AM 68.0 °F 33.8 °F 28% 29.72 in 10.0 mi WSW 3.5 mph - N/A   Clear
12:35 AM 66.2 °F 33.8 °F 30% 29.72 in 10.0 mi South 4.6 mph - N/A   Clear
12:55 AM 66.2 °F 33.8 °F 30% 29.72 in 10.0 mi WSW 3.5 mph - N/A   Clear
1:15 AM 66.2 °F 35.6 °F 32% 29.71 in 10.0 mi SW 5.8 mph - N/A   Clear
1:35 AM 66.2 °F 35.6 °F 32% 29.71 in 10.0 mi South 6.9 mph - N/A   Clear
1:55 AM 66.2 °F 33.8 °F 30% 29.70 in 10.0 mi SSW 3.5 mph - N/A   Clear
2:15 AM 66.2 °F 33.8 °F 30% 29.68 in 10.0 mi South 8.1 mph - N/A   Clear
2:35 AM 64.4 °F 33.8 °F 32% 29.68 in 10.0 mi South 5.8 mph - N/A   Clear
2:55 AM 62.6 °F 33.8 °F 34% 29.67 in 10.0 mi Calm Calm - N/A   Clear
3:15 AM 64.4 °F 33.8 °F 32% 29.67 in 10.0 mi SW 3.5 mph - N/A   Clear
3:35 AM 60.8 °F 30.2 °F 31% 29.67 in 10.0 mi Calm Calm - N/A   Clear
3:55 AM 64.4 °F 33.8 °F 32% 29.66 in 10.0 mi Calm Calm - N/A   Clear
4:15 AM 64.4 °F 33.8 °F 32% 29.65 in 10.0 mi ESE 5.8 mph - N/A   Clear
4:35 AM 60.8 °F 32.0 °F 34% 29.65 in 10.0 mi Calm Calm - N/A   Clear
4:55 AM 57.2 °F 30.2 °F 36% 29.65 in 10.0 mi ENE 4.6 mph - N/A   Clear
5:15 AM 57.2 °F 32.0 °F 38% 29.64 in 10.0 mi Calm Calm - N/A   Clear
5:35 AM 57.2 °F 32.0 °F 38% 29.64 in 10.0 mi Calm Calm - N/A   Clear
5:55 AM 57.2 °F 33.8 °F 41% 29.63 in 10.0 mi East 4.6 mph - N/A   Clear
6:15 AM 60.8 °F 33.8 °F 36% 29.63 in 10.0 mi East 4.6 mph - N/A   Clear
6:35 AM 59.0 °F 33.8 °F 39% 29.63 in 10.0 mi East 4.6 mph - N/A   Clear
6:55 AM 60.8 °F 35.6 °F 39% 29.62 in 8.0 mi East 6.9 mph - N/A   Clear
7:15 AM 64.4 °F 35.6 °F 34% 29.61 in 10.0 mi SE 9.2 mph - N/A   Clear
7:35 AM 66.2 °F 35.6 °F 32% 29.61 in 10.0 mi South 11.5 mph 16.1 mph N/A   Clear
7:55 AM 68.0 °F 37.4 °F 33% 29.61 in 10.0 mi South 20.7 mph 27.6 mph N/A   Clear
8:15 AM 69.8 °F 37.4 °F 31% 29.61 in 10.0 mi South 19.6 mph 28.8 mph N/A   Clear
8:35 AM 71.6 °F 37.4 °F 29% 29.61 in 6.0 mi South 25.3 mph 32.2 mph N/A   Clear
8:55 AM 71.6 °F 39.2 °F 31% 29.60 in 3.0 mi South 26.5 mph 34.5 mph N/A   Clear
9:15 AM 73.4 °F 39.2 °F 29% 29.59 in 1.0 mi South 29.9 mph 39.1 mph N/A   Clear
9:35 AM 73.4 °F 39.2 °F 29% 29.58 in 2.5 mi South 29.9 mph 35.7 mph N/A   Clear
9:55 AM 75.2 °F 39.2 °F 27% 29.57 in 8.0 mi South 29.9 mph 38.0 mph N/A   Clear
10:15 AM 75.2 °F 39.2 °F 27% 29.56 in 1.2 mi South 28.8 mph 41.4 mph N/A   Clear
10:35 AM 77.0 °F 39.2 °F 26% 29.54 in 1.0 mi South 35.7 mph 43.7 mph N/A   Clear
10:55 AM 78.8 °F 41.0 °F 26% 29.55 in 4.0 mi South 32.2 mph 42.6 mph N/A   Clear
11:15 AM 78.8 °F 39.2 °F 24% 29.56 in 5.0 mi SSW 27.6 mph 35.7 mph N/A   Clear
11:35 AM 78.8 °F 39.2 °F 24% 29.54 in 7.0 mi SSW 24.2 mph 38.0 mph N/A   Clear
11:55 AM 78.8 °F 39.2 °F 24% 29.52 in 8.0 mi SSW 24.2 mph 34.5 mph N/A   Clear
12:15 PM 73.4 °F 39.2 °F 29% 29.50 in 7.0 mi SSW 27.6 mph 42.6 mph N/A   Clear
12:35 PM 77.0 °F 39.2 °F 26% 29.50 in 6.0 mi SW 27.6 mph 38.0 mph N/A   Clear
12:55 PM 80.6 °F 41.0 °F 24% 29.47 in 8.0 mi SSW 27.6 mph 36.8 mph N/A   Clear
1:15 PM 82.4 °F 42.8 °F 25% 29.45 in 3.0 mi SSW 27.6 mph 42.6 mph N/A   Clear
1:35 PM 82.4 °F 37.4 °F 20% 29.45 in 5.0 mi SW 31.1 mph 38.0 mph N/A   Clear
1:55 PM 82.4 °F 37.4 °F 20% 29.44 in 2.5 mi SW 32.2 mph 44.9 mph N/A   Clear
2:15 PM - - N/A% 29.44 in 5.0 mi SW 29.9 mph 40.3 mph N/A   Clear
2:35 PM 82.4 °F 35.6 °F 19% 29.44 in 6.0 mi SSW 25.3 mph 41.4 mph N/A   Clear
2:55 PM 80.6 °F 35.6 °F 20% 29.43 in 6.0 mi SW 31.1 mph 40.3 mph N/A   Clear
3:15 PM - - N/A% 29.42 in 6.0 mi SW 31.1 mph 41.4 mph N/A   Clear
3:35 PM - - N/A% 29.42 in 3.0 mi SW 36.8 mph 46.0 mph N/A   Clear
3:55 PM - - N/A% 29.43 in 5.0 mi SW 29.9 mph 40.3 mph N/A   Clear
4:15 PM 80.6 °F 30.2 °F 16% 29.42 in 2.5 mi SW 33.4 mph 46.0 mph N/A   Clear
4:35 PM 80.6 °F 30.2 °F 16% 29.42 in 7.0 mi SW 27.6 mph 42.6 mph N/A   Clear
4:55 PM - - N/A% 29.41 in 9.0 mi WSW 29.9 mph 42.6 mph N/A   Clear
5:15 PM 78.8 °F 32.0 °F 18% 29.42 in 9.0 mi SW 24.2 mph 36.8 mph N/A   Clear
5:35 PM 75.2 °F 33.8 °F 22% 29.41 in 8.0 mi SW 26.5 mph 36.8 mph N/A   Clear
5:55 PM 75.2 °F 32.0 °F 21% 29.42 in 9.0 mi SW 23.0 mph 33.4 mph N/A   Clear
6:15 PM 73.4 °F 32.0 °F 22% 29.42 in 10.0 mi SW 21.9 mph 26.5 mph N/A   Clear
6:35 PM 73.4 °F 33.8 °F 23% 29.42 in 10.0 mi SSW 18.4 mph 24.2 mph N/A   Clear
6:55 PM 71.6 °F 35.6 °F 27% 29.42 in 10.0 mi SSW 18.4 mph 26.5 mph N/A   Clear
7:15 PM 69.8 °F 35.6 °F 28% 29.42 in 10.0 mi SSW 21.9 mph 28.8 mph N/A   Clear
7:35 PM 69.8 °F 35.6 °F 28% 29.44 in 10.0 mi SSW 16.1 mph 27.6 mph N/A   Clear
7:55 PM 69.8 °F 35.6 °F 28% 29.45 in 8.0 mi SSW 20.7 mph 27.6 mph N/A   Clear
8:15 PM 62.6 °F 35.6 °F 37% 29.51 in 2.5 mi NW 17.3 mph 31.1 mph N/A   Scattered Clouds
8:35 PM 59.0 °F 37.4 °F 45% 29.55 in 7.0 mi WNW 24.2 mph 38.0 mph N/A   Mostly Cloudy
8:55 PM 53.6 °F 42.8 °F 67% 29.55 in 10.0 mi WNW 18.4 mph 25.3 mph N/A   Overcast
9:15 PM 53.6 °F 44.6 °F 72% 29.57 in 10.0 mi WNW 11.5 mph 23.0 mph N/A Thunderstorm Thunderstorm
9:35 PM 53.6 °F 44.6 °F 72% 29.59 in 10.0 mi West 5.8 mph - 0.02 in   Overcast
9:55 PM 53.6 °F 44.6 °F 72% 29.59 in 10.0 mi Calm Calm - 0.03 in   Overcast
10:15 PM 53.6 °F 46.4 °F 77% 29.60 in 10.0 mi SE 6.9 mph - N/A   Overcast
10:35 PM 53.6 °F 46.4 °F 77% 29.59 in 10.0 mi ESE 10.4 mph - N/A   Overcast
10:55 PM 53.6 °F 46.4 °F 77% 29.58 in 10.0 mi ESE 11.5 mph - N/A   Scattered Clouds
11:15 PM 51.8 °F 44.6 °F 76% 29.59 in 10.0 mi SE 11.5 mph - N/A   Clear
11:35 PM 51.8 °F 46.4 °F 82% 29.60 in 10.0 mi SSE 10.4 mph - N/A   Partly Cloudy
11:55 PM 51.8 °F 46.4 °F 82% 29.60 in 10.0 mi SSE 10.4 mph - N/A   Partly Cloudy